Flag for Germany Weather past 2 weeks in Giessen, Hesse, Germany

Now
58 °F

Sunny.


Feels Like: 58 °F
Forecast: 65 / 89 °F
Wind: No wind

Location: Giessen

Current Time: Jul 1, 2015 at 6:54:17 AM

Latest Report: Jul 1, 2015 at 6:00 AM


Visibility: 15 mi

Pressure: 30.15 "Hg

Humidity: 81%

Dew point: 52 °F

Location of GiessenLocation

Historic Weather in Giessen — Graph

°F

Giessen temperature yesterday

Maximum temperature yesterday: 83 °F (at 6:00 PM)
Minimum temperature yesterday: 54 °F (at 5:00 AM)
Average temperature yesterday: 70 °F

Past Weeks' High & Low Weather Summary

 TemperatureHumidityPressure
High83 °F (Jun 30, 6:00 PM)97% (Jun 22, 11:00 PM)30.32 "Hg (Jun 22, 11:00 PM)
Low43 °F (Jun 17, 5:00 AM)27% (Jun 29, 6:00 PM)29.69 "Hg (Jun 23, 1:00 AM)
Average60 °F68%30.08 "Hg
* Reported Jun 16 5:00 AM — Jul 1 5:00 AM, Giessen, Weather by CustomWeather, © 2015

Note: Actual official high and low records may vary slightly from our data, if they occured in-between our weather recording intervals... More about our weather records

Advertising

Giessen weather history for previous 24 hours

 ConditionsComfort  
Time TempWeatherWind HumidityBarometerVisibility
5:00 AM
Wed, Jul 1
58 °FClear.2 mph80%30.14 "Hg19 mi
4:00 AM62 °FClear.2 mph71%30.14 "Hg22 mi
3:00 AM62 °FClear.3 mph71%30.14 "Hg22 mi
2:00 AM62 °FClear.2 mph72%30.14 "Hg22 mi
1:00 AM66 °FClear.2 mph63%30.12 "Hg22 mi
12:00 AM65 °FClear.3 mph63%30.12 "Hg25 mi
11:00 PM
Tue, Jun 30
70 °FClear.2 mph51%30.12 "Hg28 mi
10:00 PM72 °FClear.3 mph48%30.11 "Hg40 mi
9:00 PM77 °FSunny.3 mph38%30.09 "Hg43 mi
8:00 PM81 °FSunny.3 mph29%30.08 "Hg43 mi
7:00 PM83 °FSunny.1 mph28%30.08 "Hg40 mi
6:00 PM83 °FSunny.3 mph28%30.09 "Hg25 mi
4:00 PM82 °FSunny.3 mph30%30.11 "Hg25 mi
3:00 PM81 °FSunny.3 mph31%30.13 "Hg31 mi
2:00 PM80 °FSunny.3 mph34%30.14 "Hg19 mi
1:00 PM78 °FSunny.3 mph35%30.15 "Hg31 mi
12:00 PM76 °FSunny.3 mph40%30.16 "Hg28 mi
11:00 AM74 °FSunny.3 mph43%30.17 "Hg25 mi
10:00 AM71 °FSunny.2 mph58%30.18 "Hg22 mi
9:00 AM67 °FSunny.2 mph65%30.19 "Hg25 mi
8:00 AM62 °FSunny.1 mph72%30.19 "Hg19 mi
7:00 AM58 °FSunny.1 mph83%30.19 "Hg16 mi
Weather by CustomWeather, © 2015

See weather overviewHow to use our weather pages